[[{"header":{"parameterUnit":"m.s-1","parameterCategory":1,"la1":30.2992,"la2":30.254,"lo1":-89.0895,"lo2":-89.0443,"dy":0.0025,"dx":0.0025,"nx":19,"ny":19,"refTime":"2026-04-04T21:00:00:Z","depth":0,"parameterNumber":2,"parameterNumberName":"U-component_of_WINDS"},"data":[0,0,0,-0.233,-0.2331,-0.2371,-0.2372,-0.2421,-0.2421,0,0,0,0,0,0,0,0,0,0,0,-0.2317,-0.2317,-0.233,-0.2331,-0.2371,-0.2372,-0.2421,-0.2421,0,0,0,0,0,0,0,0,0,0,0,-0.2317,-0.2317,-0.2317,-0.2331,-0.2371,-0.2372,-0.2421,-0.2391,0,0,0,0,0,0,0,0,0,0,-0.2352,-0.2339,-0.2317,-0.2317,-0.2332,-0.2371,-0.2372,-0.239,-0.2393,-0.2401,0,-0.2408,0,-0.2415,-0.2424,-0.2425,0,0,0,-0.2333,-0.2336,-0.2348,-0.2317,-0.2332,-0.2371,-0.2354,-0.2392,-0.2395,-0.2406,-0.2409,-0.2411,-0.2416,-0.2425,-0.2425,-0.2467,-0.2467,0,0,-0.233,-0.2324,-0.2345,-0.235,-0.2344,-0.2352,-0.2355,-0.2394,-0.2397,-0.2409,-0.2412,-0.2417,-0.2425,-0.2425,-0.2467,-0.2467,0,0,0,-0.2323,-0.2322,-0.2333,-0.2348,-0.2355,-0.2353,-0.2356,-0.2396,-0.24,-0.2413,-0.2418,-0.2425,-0.2426,-0.2467,-0.2467,-0.2467,0,0,0,-0.2322,-0.2318,-0.2332,-0.2328,-0.2355,-0.2376,-0.2357,-0.2397,-0.2402,-0.2417,-0.2425,-0.2426,-0.2467,-0.2467,-0.2467,-0.2468,0,0,0,-0.2315,-0.2317,-0.2322,-0.2328,-0.2345,-0.2376,-0.2382,-0.2398,-0.2405,-0.2425,-0.2426,-0.2467,-0.2467,-0.2466,-0.2468,-0.2477,0,0,0,-0.2306,-0.2322,-0.2322,-0.2342,-0.2344,-0.2375,-0.2382,-0.2405,-0.2422,-0.2425,-0.2467,-0.2467,-0.2466,-0.2468,-0.2477,-0.2484,-0.2486,0,0,-0.2323,-0.2324,-0.2336,-0.2337,-0.2366,-0.2369,-0.2398,-0.242,-0.2429,-0.2454,-0.2455,-0.2467,-0.2468,-0.2477,-0.25,-0.2501,0,0,0,-0.234,-0.2348,-0.2357,-0.2373,-0.2389,-0.2404,-0.2422,-0.243,-0.2452,-0.244,-0.2473,-0.2473,-0.2479,-0.2483,-0.2484,-0.2489,-0.2469,-0.2469,-0.2469,-0.2355,-0.2364,-0.2385,-0.2398,-0.2412,-0.243,-0.2442,-0.2456,-0.2462,-0.2469,-0.2477,-0.249,-0.2494,-0.2495,-0.25,-0.2481,-0.2481,-0.2481,-0.2481,-0.2381,-0.2395,-0.24,-0.2422,-0.243,-0.2449,-0.2466,-0.2469,-0.2488,-0.2485,-0.2491,-0.2487,-0.2496,-0.2501,-0.2481,-0.2481,-0.2481,-0.2481,-0.2481,-0.2393,-0.2401,-0.2409,-0.2431,-0.2446,-0.2459,-0.2475,-0.2483,-0.2491,-0.2496,-0.2504,-0.2504,-0.2505,-0.2499,-0.2499,-0.2499,-0.2499,-0.2499,-0.2499,-0.2402,-0.2411,-0.2424,-0.2442,-0.2451,-0.2465,-0.2481,-0.2492,-0.2504,-0.2509,-0.2509,-0.2513,-0.2495,-0.2491,-0.25,-0.25,-0.25,-0.25,-0.25,-0.2426,-0.2421,-0.2441,-0.2451,-0.2471,-0.2485,-0.2494,-0.2513,-0.2522,-0.253,-0.2532,-0.2518,-0.252,-0.2519,-0.2516,-0.2531,-0.2531,-0.2531,-0.2531,-0.2436,-0.2437,-0.2458,-0.2473,-0.2488,-0.2497,-0.2519,-0.2531,-0.2543,-0.2549,-0.2548,-0.2543,-0.2542,-0.2545,-0.2543,-0.254,-0.2561,-0.2561,-0.2561,-0.2451,-0.2453,-0.2471,-0.2482,-0.2497,-0.251,-0.2531,-0.2547,-0.256,-0.2563,-0.2554,-0.2553,-0.2545,-0.2543,-0.2547,-0.2544,-0.2538,0,0]},{"header":{"parameterUnit":"m.s-1","parameterCategory":1,"la1":30.2992,"la2":30.254,"lo1":-89.0895,"lo2":-89.0443,"dy":0.0025,"dx":0.0025,"nx":19,"ny":19,"refTime":"2026-04-04T21:00:00:Z","depth":0,"parameterNumber":3,"parameterNumberName":"V-component_of_WINDS"},"data":[0,0,0,-6.8819,-6.8822,-6.8975,-6.8975,-6.9175,-6.9177,0,0,0,0,0,0,0,0,0,0,0,-6.878,-6.8781,-6.8818,-6.8823,-6.8975,-6.8975,-6.9175,-6.9177,0,0,0,0,0,0,0,0,0,0,0,-6.8779,-6.8781,-6.8783,-6.8823,-6.8975,-6.8975,-6.9174,-6.9057,0,0,0,0,0,0,0,0,0,0,-6.8908,-6.8878,-6.878,-6.8783,-6.8824,-6.8974,-6.8975,-6.9051,-6.9064,-6.9109,0,-6.9154,0,-6.9169,-6.9191,-6.9192,0,0,0,-6.8817,-6.8867,-6.8903,-6.8783,-6.8826,-6.8974,-6.8904,-6.9058,-6.9073,-6.9127,-6.9157,-6.9164,-6.9172,-6.9192,-6.9193,-6.9482,-6.9483,0,0,-6.8808,-6.8809,-6.8893,-6.8913,-6.8894,-6.89,-6.8909,-6.9067,-6.9098,-6.9157,-6.9168,-6.9176,-6.9194,-6.9195,-6.948,-6.9482,0,0,0,-6.8788,-6.8804,-6.8836,-6.8906,-6.8933,-6.8904,-6.8915,-6.9091,-6.9102,-6.917,-6.9178,-6.9195,-6.9198,-6.9478,-6.9481,-6.9563,0,0,0,-6.8783,-6.8792,-6.8832,-6.8834,-6.893,-6.9015,-6.8936,-6.9091,-6.9109,-6.9177,-6.9195,-6.92,-6.9476,-6.948,-6.9557,-6.9602,0,0,0,-6.8767,-6.879,-6.8815,-6.8834,-6.89,-6.9012,-6.9032,-6.9095,-6.9114,-6.9192,-6.92,-6.9475,-6.9479,-6.9552,-6.9593,-6.9679,0,0,0,-6.875,-6.8883,-6.8816,-6.8966,-6.8899,-6.9063,-6.9031,-6.9152,-6.9228,-6.9196,-6.9477,-6.948,-6.955,-6.9587,-6.9673,-6.9753,-6.9786,0,0,-6.8917,-6.8903,-6.8991,-6.8936,-6.9113,-6.904,-6.9228,-6.9295,-6.9299,-6.942,-6.9427,-6.9559,-6.9592,-6.9678,-6.9971,-6.9997,0,0,0,-6.9045,-6.9108,-6.9155,-6.9231,-6.9288,-6.9341,-6.938,-6.9405,-6.9509,-6.9363,-6.9613,-6.9633,-6.9683,-6.9721,-6.9743,-6.9787,-6.9498,-6.9498,-6.9497,-6.9281,-6.9284,-6.9431,-6.9453,-6.9526,-6.9567,-6.9626,-6.9667,-6.9644,-6.9704,-6.9739,-6.9917,-6.9962,-6.9979,-7.0024,-6.9781,-6.9781,-6.9782,-6.9782,-6.9526,-6.9618,-6.959,-6.9723,-6.9724,-6.9834,-6.9879,-6.986,-6.9961,-6.989,-6.9934,-6.9856,-7.0008,-7.0047,-6.9788,-6.9787,-6.9786,-6.9786,-6.9785,-6.9682,-6.9726,-6.9758,-6.987,-6.9955,-6.997,-7.0071,-7.0067,-7.0064,-7.0108,-7.0146,-7.0144,-7.0143,-7.0126,-7.0127,-7.0127,-7.0128,-7.0128,-7.0129,-6.9831,-6.9864,-6.9951,-7.0026,-7.0076,-7.014,-7.0184,-7.0231,-7.0283,-7.0271,-7.0272,-7.0244,-7.0023,-6.9967,-7.0138,-7.0137,-7.0135,-7.0135,-7.0134,-7.0079,-7.0024,-7.0159,-7.0209,-7.0297,-7.0383,-7.0378,-7.0475,-7.0513,-7.0563,-7.0527,-7.0364,-7.0347,-7.0329,-7.0283,-7.0526,-7.0526,-7.0526,-7.0526,-7.0211,-7.0204,-7.0342,-7.0423,-7.0501,-7.0512,-7.0662,-7.0698,-7.0725,-7.0749,-7.0713,-7.0652,-7.0634,-7.0628,-7.0604,-7.0561,-7.0869,-7.0869,-7.087,-7.0365,-7.0365,-7.0496,-7.0526,-7.0596,-7.0655,-7.0797,-7.0889,-7.0907,-7.0883,-7.0768,-7.0753,-7.0655,-7.0622,-7.0595,-7.0557,-7.0479,0,0]}]]